Location: Bennemühlen
(52.5740°N, 9.7135°E)
Time: 00:58:11
(UTC+00:00)

A-11 Canister half - Pass Details

Date: 26 February 2026
Orbit: 1512 x 1687 km, 47.2° (Epoch: 8 March)

Event Time Altitude Azimuth Distance (km) Brightness Sun altitude
Rises 15:24:25 0° 166° (SSE) 4,913 11.9 11.8°
Reaches altitude 10° 15:31:32 10° 132° (SE) 3,947 11.0 10.8°
Maximum altitude 15:33:24 11° 121° (ESE) 3,899 10.9 10.6°
Drops below altitude 10° 15:35:15 10° 110° (ESE) 3,951 10.8 10.3°
Sets 15:42:20 0° 77° (ENE) 4,933 11.0 9.4°
